Home > Weather > Surgut > Past weeks

Flag for Russia Weather for the Past 2 Weeks in Surgut, Russia

Now
16 °F

Light snow. Passing clouds.


Feels Like: 7 °F
Forecast: 12 / 24 °F
Wind: 6 mph from South

Location: Surgut Airport

Current Time: Feb 11, 2016 at 2:08:16 AM

Latest Report: Feb 11, 2016 at 1:30 AM


Visibility: 4 mi

Pressure: 30.07 "Hg

Humidity: 93%

Dew point: 14 °F

Location of SurgutLocation

Historic Weather in Surgut — Graph

°F

Surgut Temperature Yesterday

Maximum temperature yesterday: 16 °F (at 11:30 PM)
Minimum temperature yesterday: -17 °F (at 4:00 AM)
Average temperature yesterday: 0 °F

High & Low Weather Summary for the Past Weeks

 TemperatureHumidityPressure
High27 °F (Feb 3, 1:30 PM)100% (Feb 2, 9:00 AM)30.63 "Hg (Feb 2, 9:00 AM)
Low-17 °F (Feb 10, 4:00 AM)60% (Jan 28, 12:30 PM)29.50 "Hg (Feb 6, 9:30 AM)
Average7 °F84%30.11 "Hg
* Reported Jan 27 1:00 AM — Feb 11 1:00 AM, Surgut, Weather by CustomWeather, © 2016

Note: Actual official high and low records may vary slightly from our data, if they occured in-between our weather recording intervals... More about our weather records

Advertising

Surgut Weather History for the Previous 24 Hours

 ConditionsComfort  
Time TempWeatherWind HumidityBarometerVisibility
1:00 AM
Thu, Feb 11
16 °FLight snow. Passing clouds.6 mph93%30.07 "Hg4 mi
12:30 AM16 °FHeavy snow. Ice fog.3 mph93%30.07 "Hg1 mi
12:00 AM16 °FLight snow. Passing clouds.6 mph86%30.09 "Hg4 mi
11:30 PM
Wed, Feb 10
16 °FLight snow. Passing clouds.3 mph86%30.09 "Hg4 mi
11:00 PM14 °FLight snow. Passing clouds.6 mph92%30.09 "Hg3 mi
10:30 PM14 °FSnow flurries. Passing clouds.6 mph92%30.09 "Hg1 mi
10:00 PM14 °FSnow flurries. Passing clouds.6 mph92%30.09 "Hg2 mi
9:30 PM14 °FSleet. Overcast.6 mph85%30.09 "Hg1 mi
9:00 PM14 °FLight snow. Passing clouds.6 mph85%30.12 "Hg2 mi
8:30 PM14 °FLight snow. Passing clouds.8 mph85%30.12 "Hg2 mi
8:00 PM14 °FLight snow. Passing clouds.8 mph85%30.12 "Hg4 mi
7:30 PM14 °FLight snow. Passing clouds.6 mph85%30.12 "Hg2 mi
7:00 PM12 °FLight snow. Passing clouds.8 mph85%30.15 "Hg3 mi
6:30 PM12 °FLight snow. Passing clouds.8 mph85%30.15 "Hg2 mi
6:00 PM12 °FSnow flurries. Passing clouds.10 mph85%30.15 "Hg3 mi
5:30 PM10 °FClear.8 mph85%30.15 "Hg4 mi
5:00 PM9 °FClear.8 mph92%30.15 "Hg4 mi
4:30 PM9 °FClear.8 mph85%30.15 "Hg4 mi
4:00 PM7 °FClear.6 mph92%30.18 "Hg4 mi
3:30 PM7 °FClear.6 mph85%30.18 "Hg4 mi
3:00 PM7 °FClear.6 mph85%30.18 "Hg4 mi
2:30 PM5 °FPassing clouds.6 mph92%30.21 "Hg4 mi
2:00 PM5 °FPassing clouds.6 mph85%30.21 "Hg4 mi
1:30 PM5 °FPassing clouds.6 mph85%30.21 "Hg4 mi
1:00 PM5 °FScattered clouds.3 mph85%30.24 "Hg4 mi
12:30 PM3 °FScattered clouds.6 mph85%30.24 "Hg4 mi
12:00 PM1 °FScattered clouds.6 mph85%30.24 "Hg4 mi
11:30 AM1 °FScattered clouds.6 mph85%30.27 "Hg4 mi
11:00 AM0 °FScattered clouds.3 mph84%30.27 "Hg4 mi
10:30 AM-2 °FScattered clouds.3 mph77%30.27 "Hg4 mi
10:00 AM-4 °FScattered clouds.3 mph77%30.27 "Hg4 mi
9:30 AM-6 °FIce fog.3 mph77%30.27 "Hg3 mi
9:00 AM-9 °FIce fog.1 mph77%30.30 "Hg3 mi
8:30 AM-11 °FPassing clouds.1 mph84%30.30 "Hg4 mi
8:00 AM-15 °FIce fog.1 mph76%30.27 "Hg2 mi
7:30 AM-15 °FPassing clouds.1 mph76%30.27 "Hg4 mi
7:00 AM-15 °FPassing clouds.1 mph83%30.27 "Hg4 mi
6:30 AM-17 °FPassing clouds.1 mph83%30.27 "Hg4 mi
5:30 AM-15 °FPassing clouds.3 mph83%30.30 "Hg4 mi
5:00 AM-15 °FPassing clouds.6 mph83%30.27 "Hg4 mi
4:30 AM-15 °FPassing clouds.6 mph76%30.27 "Hg4 mi
4:00 AM-17 °FPassing clouds.3 mph83%30.27 "Hg4 mi
3:30 AM-13 °FClear.3 mph76%30.27 "Hg4 mi
3:00 AM-15 °FPassing clouds.3 mph83%30.27 "Hg4 mi
2:30 AM-13 °FPassing clouds.6 mph83%30.27 "Hg4 mi
2:00 AM-13 °FPassing clouds.6 mph83%30.27 "Hg4 mi
Weather by CustomWeather, © 2016

See weather overviewHow to use our weather pages